Cambridge Bay Gsn, Nunavut

12:15 PM MDT on July 23, 2016 (GMT -0600)
Cambridge Bay

Weather History for CYCB - May, 2013

Change the Weather History Date:

Monday, May 6, 2013

  Actual Average Record
Temperature  
Mean Temperature -6 °F -  
Max Temperature 5 °F 13 °F 30 °F (2006)
Min Temperature -16 °F 1 °F -16 °F (2013)
Degree Days  
Heating Degree Days 70    
Moisture  
Dew Point -11 °F    
Average Humidity 71    
Maximum Humidity 78    
Minimum Humidity 58    
Precipitation  
Precipitation 0.00 in - - ()
Sea Level Pressure  
Sea Level Pressure 30.08 in    
Wind  
Wind Speed 3 mph ()    
Max Wind Speed 8 mph    
Max Gust Speed -    
Visibility 15.0 miles    
Events      
Averages and records for this station are not official NWS values.
T = Trace of Precipitation, MM = Missing Value Source: Averaged Metar Reports

Daily Weather History Graph

Daily Weather History Graph

Search for Another Location

Airport or City:

Trip Planner

Search our weather history database for the weather conditions in past years. The results will help you decide how hot, cold, wet, or windy it might be!

Date:

Astronomy

May. 06, 2013 Rise Set
Actual Time 3:14 AM MDT 10:44 PM MDT
Civil Twilight 1:29 AM MDT Sun does not set
Nautical Twilight Sun does not set Sun does not set
Astronomical Twilight Sun does not set Sun does not set
Moon 3:20 AM MDT (5/6) 6:01 PM MDT (5/6)
Length of Visible Light 24h 00m
Length of Day
19h 29m
Waning Crescent, 10% of the Moon is Illuminated
May 6
Waning Crescent
May 9
New
May 17
First Quarter
May 24
Full
May 31
Last Quarter

Hourly Weather History & Observations

Time (MDT) Temp. Windchill Dew Point Humidity Pressure Visibility Wind Dir Wind Speed Gust Speed Precip Events Conditions
12:00 AM -7 °F - -12 °F 68% 30.15 in 15 mi South 2.3 mph - -   Scattered Clouds
12:00 AM -5.8 °F - -11.2 °F 77% 30.15 in 15.0 mi South 2.3 mph - N/A   Partly Cloudy
1:00 AM -9.4 °F - -16.6 °F 71% 30.14 in 15.0 mi Calm Calm - N/A   Clear
2:00 AM -13.0 °F - -20.2 °F 70% 30.14 in 15.0 mi East 2.3 mph - N/A   Clear
3:00 AM -11.2 °F - -18.4 °F 70% 30.14 in 15.0 mi Calm Calm - N/A   Clear
4:00 AM -13.0 °F - -20.2 °F 70% 30.14 in 15.0 mi Calm Calm - N/A   Clear
5:00 AM -14.8 °F - -22.0 °F 70% 30.13 in 15.0 mi East 2.3 mph - N/A   Clear
6:00 AM -14 °F - -21 °F 58% 30.13 in 15 mi East 2.3 mph - -  
6:00 AM -14.8 °F - -20.2 °F 77% 30.13 in 15.0 mi East 2.3 mph - N/A   Clear
7:00 AM -13.0 °F - -20.2 °F 70% 30.12 in 15.0 mi East 2.3 mph - N/A   Clear
8:00 AM -11.2 °F - -16.6 °F 77% 30.11 in 15.0 mi Calm Calm - N/A   Partly Cloudy
9:00 AM -7.6 °F -18.8 °F -13.0 °F 77% 30.10 in 15.0 mi ENE 4.6 mph - N/A   Partly Cloudy
10:00 AM -4.0 °F - -9.4 °F 78% 30.09 in 15.0 mi East 2.3 mph - N/A   Scattered Clouds
11:00 AM -0.4 °F -10.4 °F -7.6 °F 72% 30.08 in 15.0 mi East 4.6 mph - N/A   Partly Cloudy
12:00 PM 0 °F - -5 °F 70% 30.06 in 15 mi East 4.6 mph - -   Clear
12:00 PM 1.4 °F -8.3 °F -4.0 °F 78% 30.06 in 15.0 mi ESE 4.6 mph - N/A   Mostly Cloudy
1:00 PM 3.2 °F -7.8 °F -7.6 °F 61% 30.06 in 15.0 mi SE 5.8 mph - N/A   Mostly Cloudy
2:00 PM 3.2 °F -7.8 °F -7.6 °F 61% 30.04 in 15.0 mi ESE 5.8 mph - N/A   Mostly Cloudy
3:00 PM 5.0 °F -5.6 °F -5.8 °F 61% 30.04 in 15.0 mi SE 5.8 mph - N/A   Mostly Cloudy
4:00 PM 5.0 °F -6.9 °F -4.0 °F 66% 30.03 in 15.0 mi East 6.9 mph - N/A   Mostly Cloudy
5:00 PM 5.0 °F -6.9 °F -4.0 °F 66% 30.02 in 15.0 mi East 6.9 mph - N/A   Mostly Cloudy
6:00 PM 5 °F - -3 °F 58% 30.02 in 15 mi East 5.8 mph - -   Clear
6:00 PM 5.0 °F -5.6 °F -2.2 °F 72% 30.02 in 15.0 mi East 5.8 mph - N/A   Mostly Cloudy
7:00 PM 3.2 °F -6.2 °F -4.0 °F 72% 30.01 in 15.0 mi ENE 4.6 mph - N/A   Mostly Cloudy
8:00 PM 1.4 °F -6.2 °F -4.0 °F 78% 30.01 in 15.0 mi North 3.5 mph - N/A   Mostly Cloudy
9:00 PM 1.4 °F - -5.8 °F 72% 30.02 in 15.0 mi North 2.3 mph - N/A   Partly Cloudy
10:00 PM -2.2 °F -12.5 °F -7.6 °F 78% 30.02 in 15.0 mi NW 4.6 mph - N/A   Partly Cloudy
11:00 PM -7.6 °F -23.4 °F -13.0 °F 77% 30.01 in 15.0 mi NW 8.1 mph - N/A   Partly Cloudy